Location: Newark
(37.3333°N, 6.0167°W)
Time: 21:10:25
(UTC+00:00)

LightSail 2 - Pass Details

Date: 15 November 2019
Orbit: 695 x 731 km, 24.0° (Epoch: 05 December)

Event Time Altitude Azimuth Distance (km) Brightness Sun altitude
Rises 06:32:27 0° 247° (WSW) 3,130 8.0 -6.5°
Reaches altitude 10° 06:36:18 10° 219° (SW) 2,211 7.5 -5.8°
Maximum altitude 06:38:32 13° 194° (SSW) 2,030 7.6 -5.4°
Drops below altitude 10° 06:40:46 10° 168° (SSE) 2,212 8.2 -4.9°
Sets 06:44:38 0° 141° (SE) 3,131 9.6 -4.2°
